Regional Weather Roundup
Issued by NWS

Home | Current Version | Previous Version | Text Only | Print | Product List | Glossary On
Versions: 1 2 3 4 5 6 7 8 9 10 11 12 13 14 15 16 17 18 19 20 21 22 23 24 25 26 27 28
000
ASUS45 KCYS 221310
RWRWY

WYOMING REGIONAL WEATHER ROUNDUP
NATIONAL WEATHER SERVICE CHEYENNE WY
600 AM MST MON JAN 22 2018

NOTE:  "FAIR" INDICATES FEW OR NO CLOUDS BELOW 12,000 FEET
WITH NO SIGNIFICANT WEATHER AND/OR OBSTRUCTIONS TO VISIBILITY.

WYZ001-221400-
YELLOWSTONE NATIONAL PARK

CITY           SKY/WX    TMP DP  RH WIND       PRES   REMARKS
LK YELLOWSTONE   N/A      6   3  87 CALM      30.14S
W YELLOWSTONE  NOT AVBL

$$
WYZ002>013-054>058-071-098>099-221400-
NORTHERN WYOMING

CITY           SKY/WX    TMP DP  RH WIND       PRES   REMARKS
JACKSON        FLURRIES  -6 -10  83 N5        30.21F WCI -17
CODY           FAIR      27   9  46 W17G28    30.02R WCI  14
GREYBULL       FAIR       2  -1  88 S5        30.10R WCI  -8
WORLAND        FAIR      -5  -7  91 CALM      30.09R
SHERIDAN       FAIR       6   0  76 SE3       29.99R
BUFFALO        FAIR      23   3  42 SW9       29.98R WCI  13
GILLETTE       FAIR      21  10  62 VRB3      29.98R
HULETT         FAIR      16  10  79 MISG      29.99R
NEWCASTLE      FAIR      14   9  79 N10       30.00R WCI   1

$$
WYZ014>020-022>026-101>103-221400-
CENTRAL WYOMING

CITY           SKY/WX    TMP DP  RH WIND       PRES   REMARKS
BIG PINEY      FAIR      -5 -10  79 SW6       30.14R WCI -18
PINEDALE       FAIR       9   0  66 NW9       30.12R WCI  -5
DUBOIS         FAIR      18   3  53 NW17G25   30.06S WCI   2
LANDER         FAIR       4  -2  76 CALM      30.04R
RIVERTON       FAIR       0  -5  79 SW6       30.05R HAZE    WCI -12
CASPER         FAIR      13   6  74 SW21      30.03S WCI  -5
DOUGLAS        FAIR       5   0  79 NW8       30.01S WCI  -8

$$
WYZ021-027>030-104>119-221400-
SOUTHERN WYOMING

CITY           SKY/WX    TMP DP  RH WIND       PRES   REMARKS
EVANSTON       FLURRIES   6   3  87 SW13      30.18S WCI -10
ROCK SPRINGS   FAIR       9   4  80 SW21      30.15F WCI -11
DIXON            N/A     -2  -6  83 CALM      30.22R
RAWLINS        FAIR      11   5  77 SW10      30.07R WCI  -3
SARATOGA       FAIR      -2  -4  92 CALM      30.11S
LARAMIE        FAIR      -1  -4  87 SE12      29.99R WCI -18
CHEYENNE       FAIR      20   7  57 NW17G29   29.95R WCI   5
TORRINGTON     FAIR      13   7  77 NW14      30.00S WCI  -2

$$




USA.gov is the U.S. government's official web portal to all federal, state and local government web resources and services.